Back to catalog

KUIPER-00035

AliveCommunicationsLEO
NORAD 63748·PAYLOAD·🇺🇸 United States

Launched Apr 28, 2025 from Cape Canaveral Space Force Station

Loading…

Next Passes (next 24 hours)

TLE

FreshSource: CelesTrak SupGP

Epoch: Sep 14, 2026, 19:43 UTC

1 63748C 25088AA  26257.82181713  .00002973  00000+0  38917-3 0  2572
2 63748  51.9010 356.7455 0000477  92.1245 243.7228 14.79924797    10

Track KUIPER-00035 in real time with AllMySat

Download on the App Store